South Lake Tahoe, CA

8:31 AM PDT on July 22, 2017 (GMT -0700)
Lake Tahoe

Weather History for KTVL - November, 2012

Change the Weather History Date:

Saturday, November 24, 2012

  Actual Average Record
Temperature  
Mean Temperature 41 °F 34 °F  
Max Temperature 57 °F 47 °F 62 °F (1995)
Min Temperature 24 °F 20 °F -8 °F (2010)
Degree Days  
Heating Degree Days 24 31  
Month to date heating degree days 631 666  
Since 1 July heating degree days 1609 1898  
Cooling Degree Days 0 0  
Month to date cooling degree days 0 0  
Year to date cooling degree days 30 31  
Moisture  
Dew Point 27 °F    
Average Humidity 66    
Maximum Humidity 88    
Minimum Humidity 43    
Precipitation  
Precipitation 0.00 in - 1.66 in (1981)
Month to date precipitation 1.60  
Year to date precipitation 13.48  
Sea Level Pressure  
Sea Level Pressure 30.24 in    
Wind  
Wind Speed 2 mph (ESE)    
Max Wind Speed 8 mph    
Max Gust Speed 12 mph    
Visibility 10 miles    
Events      
T = Trace of Precipitation, MM = Missing Value Source: NWS Daily Summary

Daily Weather History Graph

Daily Weather History Graph

Search for Another Location

Airport or City:

Trip Planner

Search our weather history database for the weather conditions in past years. The results will help you decide how hot, cold, wet, or windy it might be!

Date:

Astronomy

Nov. 24, 2012 Rise Set
Actual Time 6:53 AM PST 4:40 PM PST
Civil Twilight 6:23 AM PST 5:09 PM PST
Nautical Twilight 5:51 AM PST 5:42 PM PST
Astronomical Twilight 5:19 AM PST 6:14 PM PST
Moon 2:26 PM PST (11/24) 3:16 AM PST (11/24)
Length of Visible Light 10h 45m
Length of Day
9h 47m
Waxing Gibbous, 88% of the Moon is Illuminated
Nov 24
Waxing Gibbous
Nov 28
Full
Dec 6
Last Quarter
Dec 13
New
Dec 19
First Quarter

Hourly Weather History & Observations

Time (PST) Temp. Windchill Dew Point Humidity Pressure Visibility Wind Dir Wind Speed Gust Speed Precip Events Conditions
12:53 AM 28.0 °F 24.2 °F 24.1 °F 85% 30.32 in 8.0 mi SSW 3.5 mph - N/A   Clear
1:53 AM 28.0 °F - 23.0 °F 81% 30.32 in 9.0 mi Calm Calm - N/A   Clear
2:53 AM 27.0 °F - 21.9 °F 81% 30.31 in 10.0 mi Calm Calm - N/A   Clear
3:53 AM 26.1 °F - 21.9 °F 84% 30.31 in 10.0 mi Calm Calm - N/A   Clear
4:53 AM 25.0 °F 20.7 °F 19.9 °F 81% 30.34 in 10.0 mi SSW 3.5 mph - N/A   Clear
5:53 AM 25.0 °F 19.3 °F 19.9 °F 81% 30.34 in 10.0 mi South 4.6 mph - N/A   Clear
6:53 AM 25.0 °F - 19.9 °F 81% 30.35 in 10.0 mi Calm Calm - N/A   Clear
7:53 AM 25.0 °F - 21.0 °F 85% 30.36 in 10.0 mi Calm Calm - N/A   Clear
8:53 AM 33.1 °F - 25.0 °F 72% 30.35 in 10.0 mi Calm Calm - N/A   Clear
9:53 AM 43.0 °F - 28.9 °F 58% 30.31 in 10.0 mi Calm Calm - N/A   Clear
10:10 AM 46.4 °F - 33.8 °F 62% 30.32 in 2.5 mi Calm Calm - N/A   Haze
10:25 AM 48.2 °F - 30.2 °F 50% 30.31 in 10.0 mi Calm Calm - N/A   Clear
10:53 AM 51.1 °F - 30.9 °F 46% 30.25 in 10.0 mi NE 4.6 mph - N/A   Clear
11:53 AM 54.0 °F - 36.0 °F 51% 30.21 in 10.0 mi NE 6.9 mph - N/A   Clear
12:53 PM 55.0 °F - 37.0 °F 51% 30.18 in 10.0 mi NNE 4.6 mph - N/A   Clear
1:53 PM 55.9 °F - 34.0 °F 44% 30.16 in 10.0 mi NNE 4.6 mph - N/A   Clear
2:53 PM 55.0 °F - 35.1 °F 47% 30.14 in 10.0 mi Calm Calm - N/A   Clear
3:53 PM 46.9 °F - 36.0 °F 66% 30.17 in 10.0 mi Calm Calm - N/A   Clear
4:53 PM 42.1 °F - 34.0 °F 73% 30.17 in 10.0 mi Calm Calm - N/A   Clear
5:53 PM 37.9 °F - 30.0 °F 73% 30.19 in 10.0 mi Calm Calm - N/A   Clear
6:53 PM 35.1 °F - 28.0 °F 76% 30.19 in 10.0 mi Calm Calm - N/A   Clear
7:53 PM 33.1 °F - 26.1 °F 75% 30.20 in 10.0 mi Calm Calm - N/A   Clear
8:53 PM 30.9 °F - 25.0 °F 79% 30.18 in 10.0 mi Calm Calm - N/A   Clear
9:53 PM 28.9 °F - 24.1 °F 82% 30.14 in 10.0 mi Calm Calm - N/A   Clear
10:53 PM 28.0 °F - 23.0 °F 81% 30.11 in 10.0 mi Calm Calm - N/A   Clear
11:53 PM 28.0 °F 24.2 °F 21.9 °F 78% 30.09 in 10.0 mi South 3.5 mph - N/A   Clear